Weather in Khatyrka

Russia / Chukotka Autonomous Okrug     62°03′41″N   175°17′19″E
temp.,
°C
wind,
m/s
gust,
m/s
humid.,
%
clouds,
%
prec.,
mm/h
press.,
hPa
HPBL,
m
18 january, mon
mon1800:00−24nnw448965 0.0 102185
03:00−25nnw45910 0.0 102180
06:00−25n45910 0.0 102081
09:00−25n45910 0.0 102185
12:00−24n45910 0.0 1020100
15:00−25n45880 0.0 101983
18:00−25n55880 0.0 101891
21:00−25n56890 0.0 101897
19 january, tue
tue1900:00−26n56900 0.0 1016107
03:00−26n57910 0.0 1014113
06:00−27n57910 0.0 1013121
09:00−28n68910 0.0 1012131
12:00−28n68910 0.0 1011150
15:00−28n710900 0.0 1009157
18:00−28n7108721 0.0 1009179
21:00−29n7988100 0.0 1008174
20 january, wed
wed2000:00−28n81089100 0.0 1008185
03:00−28n81089100 0.0 1007194
06:00−27n81089100 0.0 1006195
09:00−27n71088100 0.0 1007203
12:00−27n81188100 0.0 1007212
15:00−27n81190100 0.0 1004214
18:00−27n101498100 0.6 1004244
21:00−25n101793100 0.6 1003378
21 january, thu
thu2100:00−24n101794100 0.8 1004347
03:00−24n91399100 0.7 1004296
06:00−23n91498100 2.3 1005293
09:00−23n91598100 1.4 1005320
12:00−22n91599100 1.9 1005316
15:00−22n81393100 0.1 1005287
18:00−23nnw7990100 0.1 1006165
21:00−24nnw7990100 0.0 1006180
22 january, fri
fri2200:00−23nnw7984100 0.0 1005219
03:00−23nnw5882100 0.0 1005235
06:00−23nnw5683100 0.0 1005189
09:00−23nnw2382100 0.0 100699
12:00−22n3382100 0.0 1007119
15:00−20nnw3380100 0.0 1007134
18:00−21n3379100 0.0 100874
21:00−21n3382100 0.0 100964